TimePDT,TemperatureF,Dew PointF,Humidity,Sea Level PressureIn,VisibilityMPH,Wind Direction,Wind SpeedMPH,Gust SpeedMPH,PrecipitationIn,Events,Conditions,WindDirDegrees,DateUTC
12:53 AM,71.1,46.0,41,29.70,10.0,WNW,8.1,-,N/A,,Clear,300,2013-07-22 07:53:00
1:53 AM,72.0,46.0,40,29.71,10.0,WNW,11.5,-,N/A,,Clear,300,2013-07-22 08:53:00
2:53 AM,66.9,46.0,47,29.72,10.0,NW,6.9,-,N/A,,Clear,320,2013-07-22 09:53:00
3:53 AM,66.9,46.0,47,29.73,10.0,NNW,4.6,-,N/A,,Clear,340,2013-07-22 10:53:00
4:53 AM,64.9,45.0,48,29.75,10.0,NNW,6.9,-,N/A,,Clear,330,2013-07-22 11:53:00
5:53 AM,63.0,45.0,52,29.77,10.0,NW,6.9,-,N/A,,Clear,320,2013-07-22 12:53:00
6:53 AM,71.1,46.9,42,29.78,10.0,North,5.8,-,N/A,,Clear,350,2013-07-22 13:53:00
7:53 AM,77.0,46.0,33,29.80,10.0,NNW,9.2,-,N/A,,Clear,340,2013-07-22 14:53:00
8:53 AM,81.0,43.0,26,29.81,10.0,North,15.0,21.9,N/A,,Clear,360,2013-07-22 15:53:00
9:53 AM,84.0,43.0,24,29.82,10.0,North,15.0,19.6,N/A,,Clear,350,2013-07-22 16:53:00
10:53 AM,87.1,45.0,23,29.83,10.0,North,6.9,-,N/A,,Clear,360,2013-07-22 17:53:00
11:53 AM,90.0,45.0,21,29.82,10.0,North,8.1,16.1,N/A,,Clear,10,2013-07-22 18:53:00
12:53 PM,90.0,44.1,20,29.81,10.0,Variable,3.5,-,N/A,,Clear,0,2013-07-22 19:53:00
1:53 PM,93.0,42.1,17,29.81,10.0,SE,6.9,-,N/A,,Clear,140,2013-07-22 20:53:00
2:53 PM,95.0,41.0,15,29.80,10.0,Variable,6.9,-,N/A,,Clear,0,2013-07-22 21:53:00
3:53 PM,95.0,41.0,15,29.79,10.0,South,10.4,-,N/A,,Clear,180,2013-07-22 22:53:00
4:53 PM,96.1,39.0,14,29.78,10.0,SE,3.5,-,N/A,,Clear,140,2013-07-22 23:53:00
5:53 PM,97.0,35.1,11,29.77,10.0,Variable,5.8,-,N/A,,Clear,0,2013-07-23 00:53:00
6:53 PM,96.1,37.0,13,29.76,10.0,South,8.1,-,N/A,,Clear,190,2013-07-23 01:53:00
7:53 PM,91.0,37.0,15,29.76,10.0,WNW,8.1,-,N/A,,Clear,290,2013-07-23 02:53:00
8:53 PM,79.0,42.1,27,29.78,10.0,WNW,8.1,-,N/A,,Clear,290,2013-07-23 03:53:00
9:53 PM,80.1,43.0,27,29.81,10.0,WNW,5.8,-,N/A,,Clear,290,2013-07-23 04:53:00
10:53 PM,78.1,44.1,30,29.83,10.0,WNW,8.1,-,N/A,,Clear,290,2013-07-23 05:53:00
11:53 PM,73.0,45.0,37,29.84,10.0,WNW,9.2,-,N/A,,Clear,300,2013-07-23 06:53:00